sat.trackr.live / text

‹ back to catalog

STARLINK-3598

NORAD 51897 · 2022-022AX

PAYLOAD ACTIVE UNKNOWN

§ Identity

Operator
Country
US
Launch date
2022-03-03
Launch site
AFETR
Launch vehicle
Mass (kg)
RCS (m²)

Purposes: comms

External: N2YO · Heavens-Above · Gunter

§ Orbital elements

Epoch: 2026-09-20T04:20:17.881728Z

Period
93.85 min
Inclination
53.1604°
Eccentricity
0.0001547
Mean motion
15.34384416 rev/d
Perigee alt
461.7 km
Apogee alt
463.8 km
Semi-major
6,840.9 km
B*
8.7151e-6
RAAN
188.9071°
Arg perigee
76.6948°
Mean anomaly
283.4227°
Rev number
25,284

§ Raw data

STARLINK-35981 51897U 22022AX  26263.18076252 -.00000082  00000+0  87151-5 0  99952 51897  53.1604 188.9071 0001547  76.6948 283.4227 15.34384416252840

JSON: /api/v1/satellites/51897 · /tle

For live sub-satellite position, see the globe view (requires WebGL).

§ Visibility from observer

Set your observer location to see the next 7 days of passes ≥ 10°. The values pass through the URL so the page stays shareable.

No JS? Fill the form by hand. The geolocation button needs JavaScript.